Chatham, MA

5:26 AM EDT on May 25, 2017 (GMT -0400)
Chatham Municipal

Weather History for KCQX - November, 2013

Change the Weather History Date:

Saturday, November 9, 2013

  Actual Average Record
Temperature  
Mean Temperature 41 °F -  
Max Temperature 46 °F 49 °F 67 °F (1975)
Min Temperature 36 °F 37 °F 26 °F (1976)
Degree Days  
Heating Degree Days 24    
Moisture  
Dew Point 23 °F    
Average Humidity 53    
Maximum Humidity 73    
Minimum Humidity 37    
Precipitation  
Precipitation 0.00 in - - ()
Sea Level Pressure  
Sea Level Pressure 30.15 in    
Wind  
Wind Speed 7 mph (WNW)    
Max Wind Speed 13 mph    
Max Gust Speed 22 mph    
Visibility 10 miles    
Events      
Averages and records for this station are not official NWS values.
T = Trace of Precipitation, MM = Missing Value Source: NWS Daily Summary

Daily Weather History Graph

Daily Weather History Graph

Search for Another Location

Airport or City:

Trip Planner

Search our weather history database for the weather conditions in past years. The results will help you decide how hot, cold, wet, or windy it might be!

Date:

Astronomy

Nov. 09, 2013 Rise Set
Actual Time 6:22 AM EST 4:25 PM EST
Civil Twilight 5:52 AM EST 4:54 PM EST
Nautical Twilight 5:19 AM EST 5:27 PM EST
Astronomical Twilight 4:46 AM EST 6:00 PM EST
Moon 11:56 AM EST (11/9) 10:52 PM EST (11/9)
Length of Visible Light 11h 01m
Length of Day
10h 03m
Waxing Crescent, 44% of the Moon is Illuminated
Nov 9
Waxing Crescent
Nov 10
First Quarter
Nov 17
Full
Nov 25
Last Quarter
Dec 2
New

Hourly Weather History & Observations

Time (EST) Temp. Windchill Dew Point Humidity Pressure Visibility Wind Dir Wind Speed Gust Speed Precip Events Conditions
12:52 AM 39.9 °F 34.5 °F 21.9 °F 49% 30.10 in 10.0 mi WNW 8.1 mph 19.6 mph N/A   Mostly Cloudy
1:52 AM 36.0 °F 31.1 °F 24.1 °F 62% 30.12 in 10.0 mi WSW 5.8 mph - N/A   Scattered Clouds
2:52 AM 39.0 °F 32.8 °F 23.0 °F 53% 30.12 in 10.0 mi WNW 9.2 mph 18.4 mph N/A   Partly Cloudy
3:52 AM 37.9 °F 32.7 °F 21.9 °F 53% 30.14 in 10.0 mi Variable 6.9 mph 18.4 mph N/A   Partly Cloudy
4:52 AM 37.9 °F 32.1 °F 23.0 °F 55% 30.15 in 10.0 mi West 8.1 mph - N/A   Clear
5:52 AM 37.9 °F 32.7 °F 21.0 °F 51% 30.17 in 10.0 mi WNW 6.9 mph - N/A   Clear
6:52 AM 37.9 °F 31.5 °F 23.0 °F 55% 30.18 in 10.0 mi WNW 9.2 mph - N/A   Clear
7:52 AM 41.0 °F 35.2 °F 23.0 °F 49% 30.19 in 10.0 mi WNW 9.2 mph 17.3 mph N/A   Clear
8:52 AM 42.1 °F - 23.0 °F 47% 30.19 in 10.0 mi North - - N/A   Clear
9:52 AM 43.0 °F 36.8 °F 23.0 °F 45% 30.19 in 10.0 mi WNW 11.5 mph 21.9 mph N/A   Clear
10:52 AM 43.0 °F 36.4 °F 23.0 °F 45% 30.17 in 10.0 mi NW 12.7 mph 21.9 mph N/A   Clear
11:52 AM 44.1 °F 40.1 °F 21.9 °F 42% 30.16 in 10.0 mi WNW 6.9 mph 16.1 mph N/A   Clear
12:52 PM 44.1 °F 40.8 °F 21.0 °F 40% 30.16 in 10.0 mi Variable 5.8 mph - N/A   Clear
1:52 PM 46.0 °F 42.5 °F 21.0 °F 37% 30.14 in 10.0 mi Variable 6.9 mph - N/A   Clear
2:52 PM 44.1 °F 40.8 °F 21.0 °F 40% 30.14 in 10.0 mi Variable 5.8 mph - N/A   Clear
3:52 PM 43.0 °F 41.3 °F 21.9 °F 43% 30.14 in 10.0 mi Variable 3.5 mph - N/A   Partly Cloudy
4:52 PM 37.9 °F 35.5 °F 23.0 °F 55% 30.14 in 10.0 mi West 3.5 mph - N/A   Clear
5:52 PM 37.9 °F 35.5 °F 21.9 °F 53% 30.16 in 10.0 mi West 3.5 mph - N/A   Clear
6:52 PM 37.0 °F 34.5 °F 23.0 °F 57% 30.15 in 10.0 mi West 3.5 mph - N/A   Partly Cloudy
7:52 PM 36.0 °F - 24.1 °F 62% 30.15 in 10.0 mi Calm Calm - N/A   Clear
8:52 PM 37.0 °F 34.5 °F 26.1 °F 65% 30.15 in 10.0 mi WNW 3.5 mph - N/A   Clear
9:52 PM 39.0 °F - 27.0 °F 62% 30.14 in 10.0 mi Calm Calm - N/A   Overcast
10:52 PM 37.0 °F - 28.0 °F 70% 30.13 in 10.0 mi Calm Calm - N/A   Overcast
11:52 PM 37.9 °F - 30.0 °F 73% 30.11 in 10.0 mi Calm Calm - N/A   Mostly Cloudy